カタログに戻る

STARLINK-4457

運用中通信SSO
NORAD 53663·PAYLOAD·🇺🇸 United States

打ち上げ Aug 31, 2022 から Vandenberg Space Force Base

Loading…

次のパス (今後24時間)

TLE

最新Source: CelesTrak SupGP

元期: Sep 14, 2026, 21:56 UTC

1 53663C 22105R   26257.91437500  .00003012  00000+0  93542-4 0  2573
2 53663  97.2839 134.7367 0002270  90.2622 220.4353 15.33420692    11

AllMySatでSTARLINK-4457をリアルタイム追跡

Download on the App Store